Location: ?
(35.4064°N, 139.3593°E)
Time: 04:36:16
(UTC+00:00)

BlueWalker 3 - Visible Passes

Search period start: 24 June 2024 00:00
Search period end: 04 July 2024 00:00
Orbit: 480 x 493 km, 53.2° (Epoch: 23 June)

Date Brightness Start Highest point End Pass type
(mag) Time Alt. Az. Time Alt. Az. Time Alt. Az.
24 Jun 3.6 16:23:12 10° NNW 16:25:25 30° N 16:25:25 30° N visible
25 Jun 4.3 15:57:30 10° NNW 15:58:41 18° NNW 15:58:41 18° NNW visible
26 Jun 5.4 10:35:45 10° NW 10:36:28 10° NNW 10:37:10 10° NNW visible
26 Jun 4.6 15:31:48 10° NNW 15:32:39 16° NNW 15:32:39 16° NNW visible
27 Jun 4.7 15:06:05 10° NNW 15:06:56 15° NNW 15:06:56 15° NNW visible
28 Jun 4.7 14:40:22 10° NNW 14:41:25 17° NNW 14:41:25 17° NNW visible
29 Jun 4.6 14:14:39 10° NNW 14:15:59 18° NNW 14:15:59 18° NNW visible
30 Jun 4.4 13:48:56 10° NNW 13:50:40 21° N 13:50:40 21° N visible
01 Jul 4.1 13:23:12 10° NNW 13:25:24 23° N 13:25:24 23° N visible
02 Jul 3.8 12:57:28 10° NNW 13:00:11 24° NNE 13:00:11 24° NNE visible
03 Jul 3.7 12:31:43 10° NNW 12:34:46 23° NE 12:35:01 23° NE visible
